Weather History for MMMX - June, 2011

Change the Weather History Date:

Wednesday, June 15, 2011

  Actual Average Record
Temperature  
Mean Temperature 70 °F -  
Max Temperature 84 °F 74 °F 89 °F (1998)
Min Temperature 55 °F 54 °F 50 °F (2006)
Cooling Degree Days 4    
Growing Degree Days 20 (Base 50)    
Moisture  
Dew Point 43 °F    
Average Humidity 44    
Maximum Humidity 77    
Minimum Humidity 10    
Precipitation  
Precipitation 0.00 in - - ()
Sea Level Pressure  
Sea Level Pressure 30.10 in    
Wind  
Wind Speed 6 mph ()    
Max Wind Speed 22 mph    
Max Gust Speed -    
Visibility 7.8 miles    
Events      
Averages and records for this station are not official NWS values.
T = Trace of Precipitation, MM = Missing Value Source: Averaged Metar Reports

Daily Weather History Graph

Daily Weather History Graph

Search for Another Location

Airport or City:

Trip Planner

Search our weather history database for the weather conditions in past years. The results will help you decide how hot, cold, wet, or windy it might be!

Date:

Astronomy

Jun. 15, 2011 Rise Set
Actual Time 6:57 AM CDT 8:15 PM CDT
Civil Twilight 6:33 AM CDT 8:40 PM CDT
Nautical Twilight 6:04 AM CDT 9:09 PM CDT
Astronomical Twilight 5:34 AM CDT 9:39 PM CDT
Moon 8:24 PM CDT (6/15) 6:41 AM CDT (6/15)
Length of Visible Light 14h 06m
Length of Day
13h 17m
Full, 100% of the Moon is Illuminated
Jun 15
Full
Jun 15
Full
Jun 23
Last Quarter
Jul 1
New
Jul 8
First Quarter

Hourly Weather History & Observations

Time (CDT) Temp. Dew Point Humidity Pressure Visibility Wind Dir Wind Speed Gust Speed Precip Events Conditions
12:45 AM 66.2 °F 48.2 °F 52% 29.71 in 10.0 mi North 8.1 mph - N/A   Partly Cloudy
1:45 AM 64.4 °F 48.2 °F 56% 30.30 in 10.0 mi North 3.5 mph - N/A   Clear
2:45 AM 59.0 °F 48.2 °F 67% 30.29 in 10.0 mi NE 8.1 mph - N/A   Clear
2:49 AM 59.0 °F 48.2 °F 67% 30.29 in 10.0 mi NE 8.1 mph - N/A   Clear
3:47 AM 57.2 °F 46.4 °F 67% 29.68 in 12.0 mi NNE 3.5 mph - N/A   Clear
4:44 AM 57.2 °F 46.4 °F 67% 30.25 in 12.0 mi NE 3.5 mph - N/A   Clear
5:45 AM 57.2 °F 48.2 °F 72% 30.25 in 10.0 mi Calm Calm - N/A   Clear
6:46 AM 55.4 °F 48.2 °F 77% 29.68 in 7.0 mi NNE 3.5 mph - N/A   Clear
7:19 AM 59.0 °F 48.2 °F 67% 30.27 in 6.0 mi SSE 5.8 mph - N/A   Clear
7:21 AM 59.0 °F 48.2 °F 67% 30.27 in 6.0 mi SSE 5.8 mph - N/A   Clear
7:45 AM 60.8 °F 48.2 °F 63% 30.27 in 6.0 mi SSE 3.5 mph - N/A   Clear
8:22 AM 62.6 °F 50.0 °F 63% 30.28 in 6.0 mi NE 5.8 mph - N/A   Clear
8:45 AM 64.4 °F 50.0 °F 59% 30.29 in 6.0 mi NE 5.8 mph - N/A   Clear
9:23 AM 66.2 °F 48.2 °F 52% 30.29 in 6.0 mi Calm Calm - N/A   Clear
9:45 AM 68.0 °F 48.2 °F 49% 29.73 in 6.0 mi North 3.5 mph - N/A   Clear
10:23 AM 69.8 °F 46.4 °F 43% 30.29 in 6.0 mi North 4.6 mph - N/A   Clear
10:45 AM 71.6 °F 46.4 °F 41% 30.29 in 6.0 mi East 4.6 mph - N/A   Clear
11:45 AM 73.4 °F 41.0 °F 31% 30.26 in 7.0 mi NNW 6.9 mph - N/A   Clear
12:31 PM 77.0 °F 39.2 °F 26% 30.25 in 6.0 mi NNE 10.4 mph - N/A   Clear
12:46 PM 77.0 °F 37.4 °F 24% 29.64 in 6.0 mi NNE 6.9 mph - N/A   Clear
1:45 PM 78.8 °F 37.4 °F 23% 30.22 in 6.0 mi NE 4.6 mph - N/A   Clear
2:41 PM 82.4 °F 24.8 °F 12% 30.21 in 8.0 mi NE 9.2 mph - N/A   Partly Cloudy
2:50 PM 82.4 °F 24.8 °F 12% 30.20 in 8.0 mi NNE 5.8 mph - N/A   Partly Cloudy
3:48 PM 84.2 °F 21.2 °F 10% 29.59 in 8.0 mi NNE 8.1 mph - N/A   Partly Cloudy
4:46 PM 84.2 °F 26.6 °F 12% 30.16 in 8.0 mi WNW 8.1 mph - N/A   Partly Cloudy
5:48 PM 84.2 °F 26.6 °F 12% 30.13 in 7.0 mi NNW 9.2 mph - N/A   Scattered Clouds
6:47 PM 82.4 °F 26.6 °F 13% 29.57 in 8.0 mi NNW 6.9 mph - N/A   Scattered Clouds
7:32 PM 78.8 °F 46.4 °F 32% 30.15 in 8.0 mi NNE 21.9 mph - N/A   Scattered Clouds
7:52 PM 77.0 °F 46.4 °F 34% 30.17 in 8.0 mi NE 20.7 mph - N/A   Scattered Clouds
8:24 PM 73.4 °F 44.6 °F 36% 30.19 in 7.0 mi NE 19.6 mph - N/A   Mostly Cloudy
8:46 PM 71.6 °F 46.4 °F 41% 30.20 in 8.0 mi NNE 19.6 mph - N/A   Mostly Cloudy
9:45 PM 69.8 °F 51.8 °F 53% 29.66 in 8.0 mi ESE 11.5 mph - N/A   Mostly Cloudy
10:51 PM 68.0 °F 50.0 °F 52% 30.24 in 10.0 mi ENE 6.9 mph - N/A   Mostly Cloudy
11:52 PM 66.2 °F 48.2 °F 52% 30.26 in 10.0 mi ENE 3.5 mph - N/A   Mostly Cloudy